NSS-11

Last updated on Wed Sep 17 2025 00:02:46 GMT+0000 (Coordinated Universal Time)

1 26554U 00059A 25259.54724517 .00000006 00000+0 00000+0 0 9998 2 26554 1.4141 84.6851 0002962 99.2274 184.8413 1.00272599 38543
UTC large
Height (km)
Speed (km/s)
/
Latitude / Longitude
Inclination (degrees)
Orbital Period (minutes)
Azimuth
Elevation
Range (km)
Doppler Factor

Next 0 passes for location: London (51.5072 / 0.1276)

Sorry there are no passes over London.